Regional Weather Roundup
Issued by NWS Green Bay, WI

Home | Current Version | Previous Version | Graphics & Text | Print | Product List | Glossary Off
Versions: 1 2 3 4 5 6 7 8 9 10 11 12 13 14 15 16 17 18 19 20 21 22 23 24 25 26 27 28 29 30 31 32 33 34 35 36 37 38 39 40 41 42 43 44 45 46 47 48 49 50

000
ASUS43 KGRB 280959
RWRGRB

NORTH-CENTRAL AND NORTHEAST WISCONSIN REGIONAL WEATHER ROUNDUP
NATIONAL WEATHER SERVICE GREEN BAY WI
400 AM CST SUN DEC 28 2014

WIZ005-009-010>012-018-019-281100-
NORTH CENTRAL WISCONSIN

CITY           SKY/WX    TMP DP  RH WIND       PRES   REMARKS
IRONWOOD       CLOUDY    16  12  86 W9        29.96S WCI   4
MANITOWISH WTR NOT AVBL
ARBOR VITAE    NOT AVBL
EAGLE RIVER    NOT AVBL
LAND O LAKES   NOT AVBL
RHINELANDER    PTCLDY     4   2  91 W6        29.98S WCI  -7
PHILLIPS       CLOUDY    10   7  89 CALM      30.00S
ANTIGO         NOT AVBL
TOMAHAWK       NOT AVBL
MERRILL        NOT AVBL
$$

WIZ013-073-281100-
NORTHEAST WISCONSIN

CITY           SKY/WX    TMP DP  RH WIND       PRES   REMARKS
IRON MOUNTAIN    N/A     14   9  80 W6        29.96S WCI   5
MARINETTE      CLEAR     19  12  73 W3        30.02F
$$

WIZ017-030-035>037-045-281100-
CENTRAL WISCONSIN

CITY           SKY/WX    TMP DP  RH WIND       PRES   REMARKS
MEDFORD        NOT AVBL
WAUSAU         CLEAR     10   6  84 W3        30.03S
MOSINEE        NOT AVBL
MARSHFIELD     CLEAR      8   4  83 W7        30.04F WCI  -3
WISC RAPIDS    CLEAR     14   9  80 W6        30.09F WCI   5
STEVENS POINT  NOT AVBL
WAUPACA        NOT AVBL
SHAWANO        CLEAR     20  15  80 W9        30.06S WCI   9
CLINTONVILLE   CLEAR     19  12  73 W7        30.06F
$$

WIZ038-039-048-051-281100-
FOX VALLEY

CITY           SKY/WX    TMP DP  RH WIND       PRES   REMARKS
NWS GREEN BAY  CLEAR     23  17  78 W9        30.06F
APPLETON       NOT AVBL
OSHKOSH        CLEAR     21  15  78 W7        30.08F
FOND DU LAC    CLEAR     22  16  78 SW7       30.09F
$$

WIZ022-050-052-281100-
EAST CENTRAL WISCONSIN

CITY           SKY/WX    TMP DP  RH WIND       PRES   REMARKS
STURGEON BAY   CLEAR     21  16  79 W10       30.05S
MANITOWOC      NOT AVBL
SHEBOYGAN      CLEAR     23  18  81 W10       30.07F
$$

LMZ563-521-522-541>543-281100-
LAKESHORE

STATION/POSITION TIME  TEMP    WIND        PRES    VSBY  WAVE
                       AIR SEA DIR/SP/G                  HT/PER
                 (UTC) (F)     (DEG/KT/KT) (MB)    (MI)  (FT/S)
SHEBOYGAN LKSHOR 0900   25 37  270/  9/ 13 1019.7R
KEWAUNEE LKSHORE 0900   24     280/  8/ 11 1017.0S
ALGOMA MARINA    0900          320/  9/ 17   N/A
NORTHPORT PIER   0900   24     280/  7/ 17 1016.9R
SISTER BAY LKSHO 0900          300/ 17/ 20   N/A
CHAMBERS ISLAND  0900   22     240/  7/ 12 1017.3R
MENOMINEE LKSHOR 0900   22     240/  9/ 12 1017.7F
$$



USA.gov is the U.S. government's official web portal to all federal, state and local government web resources and services.